Woensdrecht, Netherlands

4:06 PM CEST on September 20, 2017 (GMT +0200)
Woensdrecht Air Base

Weather History for EHWO - July, 2013

Change the Weather History Date:

Tuesday, July 23, 2013

  Actual Average Record
Temperature  
Mean Temperature 74 °F -  
Max Temperature 89 °F 71 °F 89 °F (2013)
Min Temperature 60 °F 55 °F 48 °F (1997)
Cooling Degree Days 10    
Growing Degree Days 24 (Base 50)    
Moisture  
Dew Point 61 °F    
Average Humidity 68    
Maximum Humidity 100    
Minimum Humidity 31    
Precipitation  
Precipitation 0.00 in - - ()
Sea Level Pressure  
Sea Level Pressure 29.91 in    
Wind  
Wind Speed 2 mph ()    
Max Wind Speed 9 mph    
Max Gust Speed -    
Visibility 6.1 miles    
Events      
Averages and records for this station are not official NWS values.
T = Trace of Precipitation, MM = Missing Value Source: Averaged Metar Reports

Daily Weather History Graph

Daily Weather History Graph

Search for Another Location

Airport or City:

Trip Planner

Search our weather history database for the weather conditions in past years. The results will help you decide how hot, cold, wet, or windy it might be!

Date:

Astronomy

Jul. 23, 2013 Rise Set
Actual Time 5:53 AM CEST 9:43 PM CEST
Civil Twilight 5:11 AM CEST 10:26 PM CEST
Nautical Twilight 4:11 AM CEST 11:25 PM CEST
Astronomical Twilight 2:26 AM CEST 1:04 AM CEST
Moon 9:42 PM CEST (7/23) 6:57 AM CEST (7/23)
Length of Visible Light 17h 15m
Length of Day
15h 50m
Full, 99% of the Moon is Illuminated
Jul 23
Full
Jul 29
Last Quarter
Aug 6
New
Aug 14
First Quarter
Aug 21
Full

Hourly Weather History & Observations

Time (CEST) Temp. Heat Index Dew Point Humidity Pressure Visibility Wind Dir Wind Speed Gust Speed Precip Events Conditions
12:25 AM 68.0 °F - 64.4 °F 88% 29.98 in 6.2 mi West 1.2 mph - N/A   Unknown
12:55 AM 66.2 °F - 62.6 °F 88% 29.95 in 6.2 mi Calm Calm - N/A   Partly Cloudy
1:25 AM 66.2 °F - 62.6 °F 88% 29.95 in 6.2 mi Calm Calm - N/A   Unknown
1:55 AM 64.4 °F - 62.6 °F 94% 29.95 in 6.2 mi NE 1.2 mph - N/A   Partly Cloudy
2:25 AM 64.4 °F - 64.4 °F 100% 29.95 in 6.2 mi Calm Calm - N/A   Partly Cloudy
2:55 AM 64.4 °F - 60.8 °F 88% 29.95 in 6.2 mi Calm Calm - N/A   Unknown
3:25 AM 62.6 °F - 60.8 °F 94% 29.95 in 6.2 mi Calm Calm - N/A   Unknown
3:37 AM 62.6 °F - 60.8 °F 94% 29.95 in 4.3 mi Calm Calm - N/A   Mist
3:38 AM 62.6 °F - 60.8 °F 94% 29.95 in 6.2 mi Calm Calm - N/A   Unknown
3:55 AM 62.6 °F - 60.8 °F 94% 29.95 in 6.2 mi WSW 1.2 mph - N/A   Unknown
4:25 AM 62.6 °F - 60.8 °F 94% 29.92 in 6.2 mi South 1.2 mph - N/A   Unknown
4:55 AM 60.8 °F - 60.8 °F 100% 29.92 in 6.2 mi Calm Calm - N/A   Unknown
5:25 AM 60.8 °F - 59.0 °F 94% 29.92 in 6.2 mi Calm Calm - N/A   Unknown
5:55 AM 60.8 °F - 60.8 °F 100% 29.92 in 6.2 mi Calm Calm - N/A   Unknown
6:25 AM 60.8 °F - 60.8 °F 100% 29.92 in 6.2 mi Calm Calm - N/A   Unknown
6:47 AM 62.6 °F - 60.8 °F 94% 29.92 in 6.2 mi Calm Calm - N/A   Unknown
6:55 AM 62.6 °F - 60.8 °F 94% 29.92 in 6.2 mi Calm Calm - N/A   Unknown
7:21 AM 66.2 °F - 62.6 °F 88% 29.92 in 6.2 mi West 2.3 mph - N/A   Partly Cloudy
7:25 AM 66.2 °F - 62.6 °F 88% 29.92 in 6.2 mi West 2.3 mph - N/A   Scattered Clouds
7:55 AM 69.8 °F - 64.4 °F 83% 29.92 in 6.2 mi West 1.2 mph - N/A   Mostly Cloudy
8:25 AM 71.6 °F - 66.2 °F 83% 29.92 in 5.6 mi WSW 2.3 mph - N/A   Mostly Cloudy
8:55 AM 73.4 °F - 66.2 °F 78% 29.92 in 6.2 mi NW 1.2 mph - N/A   Partly Cloudy
9:25 AM 77.0 °F - 64.4 °F 65% 29.92 in 6.2 mi North 2.3 mph - N/A   Unknown
9:55 AM 80.6 °F 82.3 °F 64.4 °F 58% 29.92 in 6.2 mi WNW 2.3 mph - N/A   Partly Cloudy
10:25 AM 82.4 °F 83.9 °F 64.4 °F 54% 29.92 in 6.2 mi NW 2.3 mph - N/A   Unknown
10:55 AM 82.4 °F 84.6 °F 66.2 °F 58% 29.92 in 6.2 mi West 8.1 mph - N/A   Unknown
11:25 AM 84.2 °F 85.0 °F 62.6 °F 48% 29.92 in 6.2 mi NNW 6.9 mph - N/A   Unknown
11:55 AM 86.0 °F 86.1 °F 60.8 °F 43% 29.92 in 6.2 mi North 6.9 mph - N/A   Partly Cloudy
12:25 PM 86.0 °F 85.4 °F 59.0 °F 40% 29.92 in 6.2 mi North 5.8 mph - N/A   Scattered Clouds
12:55 PM 86.0 °F 85.4 °F 59.0 °F 40% 29.92 in 6.2 mi NW 6.9 mph - N/A   Partly Cloudy
1:25 PM 86.0 °F 85.4 °F 59.0 °F 40% 29.92 in 6.2 mi North 6.9 mph - N/A   Scattered Clouds
1:55 PM 86.0 °F 85.4 °F 59.0 °F 40% 29.92 in 6.2 mi WNW 6.9 mph - N/A   Mostly Cloudy
2:25 PM 86.0 °F 84.9 °F 57.2 °F 37% 29.92 in 6.2 mi North 5.8 mph - N/A   Unknown
2:55 PM 87.8 °F 86.5 °F 57.2 °F 35% 29.89 in 6.2 mi NNW 8.1 mph - N/A   Mostly Cloudy
3:25 PM 87.8 °F 86.5 °F 57.2 °F 35% 29.89 in 6.2 mi NNW 6.9 mph - N/A   Mostly Cloudy
3:55 PM 89.6 °F 88.1 °F 57.2 °F 33% 29.89 in 6.2 mi NNW 9.2 mph - N/A   Unknown
4:25 PM 87.8 °F 86.1 °F 55.4 °F 33% 29.89 in 6.2 mi NW 9.2 mph - N/A   Unknown
4:55 PM 87.8 °F 86.1 °F 55.4 °F 33% 29.89 in 6.2 mi WNW 9.2 mph - N/A   Unknown
5:11 PM 87.8 °F 85.7 °F 53.6 °F 31% 29.89 in 6.2 mi NW 6.9 mph - N/A   Partly Cloudy
5:25 PM 87.8 °F 85.7 °F 53.6 °F 31% 29.89 in 6.2 mi North 6.9 mph - N/A   Scattered Clouds
5:55 PM 86.0 °F 84.5 °F 55.4 °F 35% 29.89 in 6.2 mi NNW 6.9 mph - N/A   Unknown
6:25 PM 86.0 °F 84.9 °F 57.2 °F 37% 29.89 in 6.2 mi North 6.9 mph - N/A   Scattered Clouds
6:55 PM 82.4 °F 83.4 °F 62.6 °F 51% 29.89 in 6.2 mi West 9.2 mph - N/A   Partly Cloudy
7:25 PM 80.6 °F 81.8 °F 62.6 °F 54% 29.89 in 6.2 mi WNW 8.1 mph - N/A   Partly Cloudy
7:55 PM 78.8 °F - 62.6 °F 57% 29.89 in 6.2 mi West 4.6 mph - N/A   Scattered Clouds
8:25 PM 78.8 °F - 60.8 °F 54% 29.89 in 6.2 mi NNW 3.5 mph - N/A   Unknown
8:55 PM 77.0 °F - 60.8 °F 57% 29.89 in 6.2 mi WNW 3.5 mph - N/A   Mostly Cloudy
9:25 PM 75.2 °F - 60.8 °F 61% 29.89 in 6.2 mi NNE 3.5 mph - N/A   Scattered Clouds
9:55 PM 71.6 °F - 62.6 °F 73% 29.89 in 6.2 mi WNW 2.3 mph - N/A   Mostly Cloudy
10:07 PM 71.6 °F - 62.6 °F 73% 29.89 in 4.3 mi West 2.3 mph - N/A   Haze
10:08 PM 69.8 °F - 62.6 °F 78% 29.89 in 6.2 mi WSW 2.3 mph - N/A   Partly Cloudy
10:25 PM 68.0 °F - 62.6 °F 83% 29.89 in 6.2 mi ENE 3.5 mph - N/A   Partly Cloudy
10:55 PM 68.0 °F - 62.6 °F 83% 29.89 in 6.2 mi East 2.3 mph - N/A   Mostly Cloudy
11:25 PM 68.0 °F - 62.6 °F 83% 29.89 in 6.2 mi West 1.2 mph - N/A   Unknown
11:55 PM 66.2 °F - 62.6 °F 88% 29.89 in 6.2 mi West 1.2 mph - N/A   Scattered Clouds